STARLINK-2001 (47596 NORAD) Tracking and Keplerian Element Data

This shows tracking and keplerian element data for the satellite.

Feedback or suggestion? Click here.




ElementValue
Catalog47596
NameSTARLINK-2001
Epoch Orbit183
Epoch Day56.91667824
Epoch Year2021
RAAN17.6597
Inclination53.0532
Eccentricity0.0001237
Argument of Perigee75.4201
Mean Anonmoly286.7459
Mean Motion15.62774953
Decay Rate-0.00090081
L11 47596U 21009BA 21056.91667824 -.00090081 00000-0 -98806-3 0 9994
L22 47596 53.0532 17.6597 0001237 75.4201 286.7459 15.62774953 1830

Live tracking and technical data element details for STARLINK-2001 (NORAD 47596). STARLINK-2001 can be tracked NOW for your location showing map with azimuth and elevation plus other details from your city location.

Track the satellite on the map from your city or location and see movement details for azimuth, elevation, latitude, longitude, range, height, and movement on the map or in text.







IsCatalogInMostPopularTable: catalog: 47596, numindb: 1
Update: records affected: 1



GetName: 47596 STARLINK-2001

Hit Count: updated at: Fri, 26 Feb 2021 09:56:56 GMT